Temperature
28 28 27 26 25 25 24 23 22 21 20 19 19 19 19 19 18 18 18 18 18 18 18 17 17 17 17 17 17 17 17 17 16 16 16 16 16 16 15 16 16 16 16
28 26 26 25 24 24 24 23 22 21 20 19 19 18 19 18 18 18 18 18 18 17 17 17 17 17 17 17 17 17 16 16 16 16 16 16 16 16 15 15 16 16 16
27 25 24 24 23 23 22 22 22 21 20 18 18 18 18 18 18 18 18 17 17 17 17 17 17 17 17 17 16 17 16 16 16 16 16 16 16 15 16 16 16 16 15
27 25 24 23 22 22 21 21 21 20 19 18 18 18 17 18 18 17 17 17 17 17 17 17 17 16 16 16 16 16 16 16 16 16 16 17 17 16 16 15 15 16 15
26 24 23 23 22 21 21 21 20 19 19 18 18 17 17 17 17 17 17 17 17 17 17 17 16 16 16 16 16 16 16 16 16 15 16 16 17 17 17 16 16 16 15
26 24 23 22 21 21 20 20 20 19 19 18 17 17 17 17 17 17 17 16 17 16 16 16 16 16 16 16 16 16 15 16 15 15 15 16 17 17 17 17 17 16 16
25 23 22 21 20 21 21 20 19 19 19 18 18 17 17 17 17 17 17 16 16 16 15 15 15 15 15 15 15 15 15 15 15 15 15 15 16 17 17 18 17 17 16
24 22 21 21 20 21 21 20 19 19 19 18 18 18 18 17 17 17 17 16 16 15 15 15 15 15 15 15 15 15 15 15 15 15 16 15 15 16 17 17 17 17 16
23 22 22 21 20 21 20 20 19 19 18 18 18 18 18 17 17 17 17 16 16 15 15 14 14 15 15 15 15 15 15 15 15 15 15 16 15 16 16 17 17 17 17
23 22 22 21 21 21 20 20 19 19 19 18 18 18 18 17 17 17 16 16 16 15 15 14 14 14 14 15 14 14 14 14 14 14 15 15 16 15 16 16 17 17 17
23 22 23 23 22 21 20 20 19 19 19 18 18 18 18 17 17 16 16 16 15 15 14 14 14 14 14 14 14 14 14 14 14 13 14 14 15 15 15 16 16 17 17
23 23 23 23 23 22 21 20 20 19 19 19 18 18 17 17 17 16 16 15 15 15 15 14 14 14 14 14 14 14 14 13 13 13 13 13 14 15 14 15 15 16 16
23 23 23 23 23 22 22 21 20 20 19 19 19 18 18 17 17 16 16 15 15 15 15 14 14 14 14 14 14 14 14 13 13 13 12 13 13 14 14 14 15 15 15
23 23 23 23 22 22 22 21 21 20 20 19 19 18 18 18 17 17 16 16 15 15 15 15 15 14 14 14 14 14 14 13 13 12 12 12 13 13 13 14 14 15 15
22 23 23 23 22 22 21 21 21 21 20 19 18 18 18 18 17 17 16 16 15 15 15 15 15 15 15 14 14 14 14 13 13 13 13 13 13 13 13 14 14 14 14
22 22 22 22 22 22 21 21 20 20 20 19 18 18 17 17 17 17 16 16 16 15 15 15 15 15 15 15 14 14 14 14 14 14 14 14 13 13 13 14 14 14 14
20 20 20 20 20 20 20 20 20 19 19 19 18 18 17 17 17 16 16 16 16 16 15 15 15 15 14 14 15 15 14 14 14 14 14 14 14 14 14 14 14 14 14
18 19 19 19 19 19 19 19 19 18 18 18 17 17 16 16 16 16 15 15 15 15 15 15 15 14 14 14 14 15 14 14 14 14 14 14 14 14 14 14 13 14 14
17 17 17 17 17 18 18 17 17 16 16 15 15 15 15 15 15 15 15 15 15 15 14 14 14 14 14 14 14 14 14 14 14 14 14 14 14 14 14 14 13 13 13
16 16 16 16 16 16 16 16 15 15 14 14 13 13 13 13 14 14 14 14 14 14 14 14 14 14 14 14 14 14 14 14 14 14 14 14 14 14 14 14 13 13 13
16 16 15 15 15 15 15 14 14 13 13 12 12 12 12 13 13 13 13 13 13 13 13 13 13 13 13 13 13 14 14 14 14 14 14 14 14 14 14 13 13 13 13
16 15 15 15 15 15 14 13 13 13 12 12 12 12 11 12 12 12 12 12 12 12 12 12 12 12 13 13 13 13 13 13 13 13 13 13 14 14 14 13 13 13 13
16 15 15 15 15 14 14 14 13 13 13 12 12 11 11 11 11 11 11 11 11 11 11 12 12 12 12 12 12 12 12 12 12 13 13 13 14 14 14 13 13 13 13
16 15 16 15 15 15 14 14 13 13 13 13 12 12 11 11 11 11 11 11 11 12 12 12 12 12 12 12 12 12 12 12 12 12 13 13 13 13 13 13 13 12 12
16 16 16 15 15 15 15 14 14 13 14 13 13 12 12 11 11 11 11 11 11 11 12 12 12 12 12 11 11 11 11 12 12 12 12 12 13 13 12 12 12 12 11
17 16 15 15 16 15 15 14 14 13 13 13 13 12 12 11 11 11 11 11 11 11 11 11 11 11 11 11 11 11 11 11 11 11 11 12 12 12 12 12 12 12 11
Wind_Speed
11 10 9 6 5 7 8 10 11 8 6 5 3 3 3 4 3 3 4 5 3 4 4 5 6 5 5 5 6 4 4 3 4 5 4 2 2 5 3 2 3 4 7
12 12 9 6 4 5 5 6 9 8 6 5 4 3 3 4 5 4 3 4 5 6 3 6 4 4 5 6 6 5 3 1 2 5 4 2 2 1 3 2 2 4 1
17 16 11 9 7 8 6 6 9 8 4 4 3 3 3 4 4 5 5 5 6 6 4 5 5 3 4 6 6 7 7 3 2 3 4 4 4 3 3 5 3 4 3
14 16 12 10 9 9 8 10 10 8 6 6 5 5 5 4 5 5 5 7 7 5 4 4 5 5 3 5 7 7 6 7 4 4 4 5 5 4 3 3 4 6 5
13 16 12 11 11 10 8 9 10 8 7 6 5 4 3 3 2 4 6 6 6 6 5 5 7 7 5 5 6 5 7 6 7 7 7 6 3 4 4 4 4 4 4
11 14 12 12 11 9 8 9 9 8 6 5 5 5 5 5 4 5 5 4 3 4 6 7 8 7 6 6 6 6 7 8 9 9 10 8 4 3 3 4 6 5 5
12 14 13 12 10 9 8 8 8 8 7 6 6 6 6 6 7 7 6 5 3 3 4 5 6 6 7 7 6 5 6 8 10 12 10 9 7 5 4 4 5 5 4
12 14 11 11 9 9 9 8 8 8 8 7 8 8 7 3 1 3 5 4 3 2 2 2 3 5 6 7 7 6 7 7 9 11 11 8 7 5 5 4 4 4 4
13 14 13 12 11 10 9 8 8 8 8 8 6 4 4 5 3 3 5 4 3 2 1 3 3 3 3 4 6 6 7 7 8 8 8 7 5 6 4 2 3 5 5
8 10 12 14 13 11 10 9 9 9 8 7 5 3 2 4 3 2 5 5 4 5 5 5 4 5 4 4 5 5 5 6 6 5 5 4 3 3 7 3 1 2 5
6 4 4 8 12 13 12 10 9 9 9 8 6 6 4 2 5 2 3 5 4 5 5 3 4 5 5 5 5 5 6 7 6 5 4 4 3 2 6 6 3 2 2
2 0 2 3 7 11 13 12 11 10 9 8 7 8 7 6 5 6 6 6 6 6 6 6 5 5 6 5 5 5 6 7 7 6 6 5 4 3 4 6 4 2 3
2 4 3 2 3 7 10 12 12 11 10 8 8 8 8 8 7 7 8 7 6 6 6 6 5 6 7 7 6 6 5 5 6 6 6 5 6 4 0 2 2 2 4
7 3 2 3 3 4 6 7 9 10 11 10 8 7 8 8 8 7 7 8 7 7 7 7 6 6 7 8 8 8 7 7 6 6 6 6 6 6 4 2 0 1 4
6 4 1 1 3 4 5 5 5 7 10 10 8 7 7 6 8 7 7 7 7 7 7 6 6 5 5 7 9 9 9 8 7 7 7 8 9 10 7 5 3 1 3
3 4 4 3 1 1 3 3 3 3 5 8 8 7 6 4 5 6 7 7 7 6 6 5 5 6 6 9 11 8 8 8 9 9 9 9 11 14 14 13 9 7 7
11 10 10 9 10 10 8 6 2 2 2 4 4 5 4 3 3 4 5 7 7 7 6 6 6 6 6 11 12 11 6 8 9 10 10 10 12 14 9 12 15 15 16
13 12 11 11 11 10 9 9 9 9 9 8 7 4 1 1 3 5 6 5 5 6 7 7 7 6 6 12 12 11 6 6 6 6 6 8 10 12 12 9 9 10 10
12 11 11 11 11 11 10 11 11 10 9 9 9 8 8 6 6 5 6 6 6 5 5 5 6 6 7 12 12 10 5 6 8 7 7 7 6 13 17 10 7 5 3
9 9 9 9 9 10 10 10 9 8 8 8 8 8 8 8 8 7 6 5 5 5 4 3 4 5 6 11 14 12 5 7 7 6 6 7 3 5 12 8 5 2 1
7 8 8 7 7 8 9 9 8 7 6 6 6 6 6 6 6 6 5 5 4 4 3 3 2 2 3 6 12 12 6 5 5 4 3 3 10 11 9 4 3 4 2
6 7 6 5 7 7 7 7 6 4 4 4 5 4 5 6 5 5 5 5 4 4 3 3 3 3 2 3 7 10 9 6 5 5 2 5 10 10 8 5 7 6 2
5 4 3 4 6 6 6 5 3 3 3 5 4 4 4 5 4 4 4 4 4 4 4 4 3 3 2 1 3 5 6 5 3 1 5 10 9 8 6 7 7 4 1
5 1 0 4 4 3 4 5 4 4 3 4 3 4 5 5 5 5 6 6 7 6 6 5 5 4 3 2 1 2 2 3 2 3 8 10 7 4 7 6 3 2 1
3 1 3 3 1 3 5 5 5 7 3 4 4 5 5 4 4 5 5 5 6 5 5 4 5 5 4 5 6 2 1 1 2 2 4 4 4 4 4 3 3 2 2
3 3 2 3 4 4 5 6 4 6 6 4 5 4 3 3 2 2 4 7 7 7 7 6 5 3 4 6 4 2 4 5 6 2 2 3 4 4 5 4 2 1 1
Wind_Direction
179 149 134 135 145 155 158 149 151 150 136 142 173 176 165 139 136 128 165 183 224 230 162 168 194 175 166 169 165 155 154 144 153 113 121 180 181 104 140 145 103 101 140
152 130 131 133 183 144 115 125 129 126 132 148 167 168 176 183 172 174 192 189 220 233 189 184 203 183 170 177 145 128 139 195 177 144 151 174 56 294 166 112 142 148 133
154 144 147 150 149 118 116 96 103 104 119 146 150 168 193 224 172 179 194 209 228 237 188 196 199 197 176 173 157 149 159 187 271 182 155 169 187 190 186 189 201 129 140
149 141 144 142 138 127 129 124 121 137 168 178 187 188 186 195 193 185 188 201 211 222 195 193 217 210 191 184 182 166 160 159 208 273 218 189 165 163 168 202 198 169 181
130 135 141 141 130 126 133 131 138 151 167 182 182 191 209 208 182 153 185 197 199 207 196 206 212 218 203 198 187 184 174 170 178 225 258 249 210 190 147 179 193 174 179
127 130 125 117 118 126 128 127 138 144 156 177 185 196 220 223 198 176 184 183 193 218 219 208 214 213 203 205 197 189 188 187 188 206 242 250 220 219 184 168 179 180 192
129 123 121 125 134 138 136 138 145 147 161 183 204 213 217 225 212 183 177 177 174 195 233 231 229 230 217 211 212 205 201 198 202 204 220 249 232 203 221 165 173 179 175
123 131 139 141 148 147 148 155 153 157 169 194 208 209 184 196 247 134 143 149 142 159 204 224 216 228 227 215 205 214 217 218 216 207 204 230 264 239 214 178 163 163 161
143 149 152 153 158 157 161 164 161 163 177 206 203 187 167 178 176 153 127 129 140 150 204 229 215 197 191 198 194 210 221 225 226 216 205 203 229 286 272 202 160 152 163
143 157 162 162 165 166 171 175 178 176 185 205 177 142 178 157 109 42 136 149 174 166 181 229 200 163 160 175 186 204 221 226 231 223 213 206 178 257 285 277 232 158 161
98 118 176 172 168 167 171 177 189 186 178 188 168 154 194 164 147 183 152 150 183 167 178 204 232 166 164 180 193 206 211 216 215 208 193 174 141 174 274 276 260 251 207
89 226 229 206 179 173 176 183 194 194 176 180 172 175 178 169 185 188 176 182 198 181 186 204 201 164 162 174 184 194 195 194 189 181 172 157 136 101 284 274 267 272 288
270 218 187 210 215 187 184 188 193 188 173 180 183 179 182 185 195 198 179 187 197 186 192 213 194 166 164 171 175 175 175 172 169 165 161 148 125 115 202 299 307 341 312
316 332 129 187 216 218 205 206 198 181 173 180 191 194 202 187 185 193 181 183 198 198 201 209 196 176 169 172 175 178 182 184 185 184 183 176 160 159 175 201 89 13 311
299 310 292 199 183 210 217 210 205 192 176 174 187 199 224 196 185 185 175 190 203 205 207 204 186 182 184 191 184 182 184 187 195 202 207 206 202 197 199 200 186 191 275
6 19 27 34 24 158 166 153 169 191 170 171 186 193 220 213 184 186 182 197 201 209 207 196 187 189 208 198 185 179 185 192 203 214 219 219 220 221 221 223 221 219 235
50 45 42 41 45 48 51 62 54 111 127 151 171 176 191 216 215 225 216 205 199 202 212 205 203 207 200 177 177 186 210 217 215 214 212 215 216 216 223 230 232 236 238
44 43 46 44 50 54 55 52 43 39 37 34 28 29 49 283 277 272 266 247 231 217 211 215 217 218 196 184 186 187 219 256 253 236 216 206 202 202 207 215 223 229 235
34 37 40 44 40 38 42 53 55 49 40 31 31 32 32 20 3 340 313 299 289 281 254 231 224 222 207 192 193 187 214 247 257 250 235 228 220 200 196 204 222 226 227
26 38 37 39 49 46 43 48 47 46 37 29 33 35 39 35 23 6 358 347 337 319 303 266 236 228 221 200 198 198 219 243 254 254 239 216 182 152 179 194 205 208 206
23 48 47 34 46 63 61 50 42 41 37 33 39 39 29 28 27 1 357 358 354 341 335 319 295 273 258 207 205 203 222 246 272 276 247 156 142 135 142 135 108 123 100
40 49 55 45 41 47 69 71 42 30 50 47 40 44 55 36 19 8 5 6 10 16 16 2 339 317 299 191 212 213 227 263 294 287 259 132 141 138 135 119 117 108 87
69 57 63 66 66 54 44 62 43 349 72 62 53 42 67 74 27 7 360 359 8 16 24 27 15 357 15 115 198 220 245 242 272 313 120 129 136 131 116 112 118 130 167
80 356 31 75 63 65 65 51 11 335 87 92 63 69 63 61 46 29 22 33 33 27 27 24 12 1 6 20 333 222 193 173 178 128 117 126 139 134 124 130 149 206 168
124 293 36 35 3 69 79 69 17 342 358 95 82 78 80 77 68 69 50 45 57 39 24 13 359 3 3 1 349 339 55 52 25 106 147 152 160 158 135 128 121 105 119
126 141 108 298 314 40 69 85 35 350 358 46 60 61 85 90 101 126 117 67 70 61 52 32 6 352 355 333 343 49 88 71 42 19 228 192 175 163 148 145 152 183 236
Height
1470 1474 1478 1483 1487 1490 1493 1495 1496 1499 1502 1504 1506 1507 1509 1510 1512 1513 1515 1516 1518 1520 1521 1523 1525 1528 1529 1531 1533 1535 1537 1539 1542 1543 1545 1546 1546 1546 1546 1548 1548 1548 1548
1466 1470 1475 1480 1485 1488 1491 1493 1495 1496 1498 1501 1503 1504 1506 1508 1510 1511 1512 1514 1515 1517 1518 1520 1523 1525 1527 1529 1530 1531 1534 1537 1540 1542 1544 1546 1547 1546 1547 1548 1548 1548 1548
1461 1467 1473 1478 1482 1485 1488 1491 1492 1493 1495 1498 1500 1502 1504 1506 1508 1508 1509 1511 1512 1513 1515 1516 1519 1521 1523 1525 1526 1528 1530 1534 1537 1540 1542 1543 1544 1545 1546 1546 1548 1548 1548
1458 1464 1471 1476 1481 1484 1487 1489 1490 1491 1492 1495 1497 1499 1501 1503 1505 1506 1507 1507 1508 1509 1510 1512 1514 1516 1518 1521 1523 1525 1528 1530 1533 1536 1539 1540 1541 1542 1544 1546 1546 1547 1548
1457 1464 1470 1476 1480 1483 1485 1487 1488 1489 1491 1493 1495 1497 1499 1501 1502 1503 1504 1504 1504 1505 1506 1507 1509 1512 1514 1516 1519 1521 1524 1526 1529 1532 1535 1537 1538 1539 1541 1542 1544 1545 1546
1459 1465 1471 1476 1479 1482 1484 1486 1487 1489 1490 1492 1494 1495 1497 1498 1500 1501 1501 1502 1502 1502 1503 1503 1505 1506 1509 1511 1514 1516 1519 1521 1524 1527 1530 1533 1534 1536 1538 1539 1540 1542 1544
1459 1466 1471 1475 1478 1480 1482 1485 1487 1488 1490 1491 1492 1493 1495 1496 1498 1498 1499 1499 1499 1499 1500 1501 1501 1503 1504 1506 1509 1511 1514 1516 1519 1522 1524 1527 1530 1532 1534 1537 1537 1539 1541
1461 1466 1471 1475 1477 1479 1481 1484 1487 1488 1489 1490 1492 1493 1494 1495 1496 1497 1497 1497 1497 1497 1497 1497 1498 1499 1500 1501 1503 1506 1508 1511 1514 1517 1518 1519 1523 1527 1530 1533 1535 1537 1539
1460 1465 1469 1473 1476 1478 1481 1483 1486 1487 1488 1489 1491 1492 1493 1493 1495 1495 1494 1494 1494 1494 1494 1494 1495 1495 1496 1497 1498 1499 1502 1505 1508 1511 1513 1515 1517 1520 1525 1529 1531 1534 1535
1461 1464 1467 1470 1474 1476 1479 1482 1484 1485 1487 1488 1489 1490 1491 1492 1492 1492 1492 1491 1491 1492 1492 1493 1493 1493 1493 1493 1493 1494 1496 1498 1501 1504 1508 1510 1513 1515 1519 1524 1526 1529 1531
1464 1466 1468 1469 1472 1474 1477 1479 1482 1484 1484 1485 1486 1487 1488 1489 1489 1489 1490 1489 1490 1491 1491 1492 1492 1492 1491 1491 1491 1491 1492 1494 1495 1497 1501 1504 1507 1510 1514 1519 1522 1524 1527
1464 1465 1467 1469 1470 1472 1474 1476 1479 1481 1482 1482 1483 1484 1485 1485 1486 1486 1487 1487 1488 1489 1490 1491 1491 1490 1489 1489 1488 1489 1489 1490 1491 1493 1495 1497 1501 1505 1509 1514 1517 1519 1522
1464 1464 1465 1466 1468 1469 1471 1472 1475 1477 1478 1479 1481 1481 1482 1482 1483 1484 1485 1486 1486 1487 1488 1489 1489 1489 1488 1488 1487 1487 1487 1487 1488 1490 1491 1493 1495 1500 1504 1508 1512 1514 1517
1463 1463 1464 1465 1466 1468 1469 1471 1473 1474 1475 1476 1478 1479 1480 1480 1480 1482 1483 1483 1484 1485 1486 1487 1488 1487 1487 1486 1487 1487 1487 1487 1488 1489 1490 1491 1493 1497 1501 1505 1508 1510 1512
1462 1462 1463 1464 1464 1465 1467 1468 1470 1472 1473 1474 1476 1477 1478 1479 1478 1478 1479 1480 1481 1482 1483 1485 1486 1486 1486 1486 1486 1486 1487 1487 1488 1488 1488 1489 1491 1494 1498 1501 1504 1506 1509
1461 1462 1462 1463 1464 1464 1465 1466 1468 1470 1472 1473 1473 1473 1475 1476 1476 1476 1476 1477 1478 1479 1481 1482 1483 1483 1484 1484 1485 1485 1486 1487 1487 1488 1488 1488 1489 1491 1494 1497 1500 1502 1505
1463 1464 1465 1464 1464 1464 1465 1467 1468 1470 1471 1471 1471 1471 1472 1473 1473 1473 1474 1474 1475 1476 1477 1478 1479 1480 1481 1482 1483 1484 1484 1485 1486 1487 1487 1487 1488 1490 1491 1493 1495 1498 1501
1469 1469 1469 1468 1467 1467 1468 1468 1469 1469 1469 1469 1470 1470 1470 1470 1470 1470 1470 1471 1472 1472 1473 1474 1476 1477 1478 1479 1481 1482 1483 1484 1485 1485 1486 1486 1486 1487 1489 1490 1492 1494 1497
1474 1474 1473 1472 1471 1471 1471 1470 1470 1469 1468 1468 1468 1467 1467 1466 1466 1466 1466 1467 1468 1469 1470 1471 1472 1474 1475 1476 1478 1479 1480 1480 1481 1482 1483 1483 1484 1484 1486 1488 1489 1491 1493
1479 1478 1477 1476 1475 1474 1473 1472 1472 1470 1469 1468 1467 1466 1465 1464 1464 1463 1463 1463 1463 1464 1465 1466 1468 1470 1471 1473 1474 1476 1476 1477 1477 1479 1480 1480 1481 1482 1483 1485 1487 1489 1489
1483 1481 1480 1479 1478 1477 1476 1474 1473 1471 1470 1468 1467 1466 1464 1463 1462 1461 1460 1459 1459 1460 1461 1462 1464 1466 1467 1469 1470 1471 1472 1472 1474 1475 1476 1476 1477 1478 1480 1482 1484 1485 1486
1485 1484 1483 1482 1481 1480 1478 1476 1475 1473 1471 1469 1468 1466 1464 1462 1460 1459 1459 1459 1458 1459 1459 1460 1461 1463 1464 1464 1465 1466 1467 1468 1469 1470 1472 1472 1473 1475 1477 1479 1480 1482 1483
1487 1486 1485 1484 1483 1481 1480 1478 1476 1474 1473 1471 1469 1468 1466 1463 1461 1461 1461 1461 1461 1461 1461 1461 1461 1461 1462 1462 1462 1463 1464 1464 1465 1467 1468 1469 1471 1472 1474 1476 1478 1479 1480
1488 1487 1486 1485 1484 1483 1481 1479 1476 1475 1474 1472 1471 1469 1467 1465 1463 1463 1462 1462 1462 1462 1462 1461 1461 1461 1461 1460 1460 1460 1461 1462 1463 1464 1466 1468 1469 1470 1472 1474 1475 1477 1478
1487 1487 1487 1486 1485 1484 1482 1479 1477 1475 1475 1474 1472 1470 1468 1467 1465 1465 1465 1464 1464 1464 1463 1462 1462 1460 1459 1458 1458 1458 1459 1460 1461 1462 1464 1466 1468 1469 1470 1472 1474 1475 1476
1488 1487 1487 1486 1486 1485 1483 1479 1477 1476 1475 1474 1473 1472 1470 1469 1468 1467 1467 1466 1466 1465 1464 1463 1461 1459 1458 1456 1456 1456 1457 1458 1459 1461 1463 1465 1467 1468 1469 1471 1472 1473 1474